Regional Weather Roundup
Issued by NWS

Home | Current Version | Previous Version | Graphics & Text | Print | Product List | Glossary On
Versions: 1 2 3 4 5 6 7 8 9 10 11 12 13 14 15 16 17 18 19 20 21 22 23 24 25 26 27 28 29 30 31 32 33 34 35 36 37 38 39 40 41 42 43 44 45 46 47 48 49 50
000
ASUS44 KMEG 210200
RWRTN
TENNESSEE HOURLY STATE WEATHER ROUNDUP
NATIONAL WEATHER SERVICE MEMPHIS TN
900 PM CDT SUN APR 20 2014

TNZ002-004-019-021-049-052-054-088>092-210300-
WEST TENNESSEE

CITY           SKY/WX    TMP DP  RH WIND       PRES   REMARKS
MEMPHIS INTL   PTCLDY    68  49  50 S3        30.09S
NWS MEMPHIS      N/A     65 N/A N/A MISG        N/A
JACKSON        CLEAR     61  48  62 SW3       30.10R
DYERSBURG      PTCLDY    66  45  45 CALM      30.11R
UNION CITY     CLEAR     61  54  77 CALM      30.10R
LEXINGTON      CLEAR     63  45  51 CALM      30.10S
$$

TNZ008-025-027-028-033-062-065-066-210300-
NORTH MIDDLE TENNESSEE

CITY           SKY/WX    TMP DP  RH WIND       PRES   REMARKS
NASHVILLE      PTCLDY    67  44  43 CALM      30.12R
CLARKSVILLE    PTCLDY    67  41  38 CALM      30.11R
COOKEVILLE     CLEAR     55  48  76 CALM      30.13R
CROSSVILLE     MOCLDY    63  38  39 CALM      30.17R
$$

TNZ061-075-076-078-094-096-097-210300-
SOUTH MIDDLE TENNESSEE

CITY           SKY/WX    TMP DP  RH WIND       PRES   REMARKS
TULLAHOMA      CLEAR     59  45  58 CALM      30.15R
WINCHESTER     CLEAR     57  50  77 CALM      30.15R
MCMINNVILLE    CLEAR     59  48  67 CALM      30.14R
COLUMBIA       CLEAR     61  52  72 CALM      30.11R
$$

TNZ017-018-042-046-047-210300-
NORTHEAST TENNESSEE

CITY           SKY/WX    TMP DP  RH WIND       PRES   REMARKS
TRI CITIES     PTCLDY    62  29  28 CALM      30.17R
ELIZABETHTON   CLEAR     55  32  41 CALM      30.19R
$$

TNZ012-013-036-069-073-074-210300-
CENTRAL EAST TENNESSEE

CITY           SKY/WX    TMP DP  RH WIND       PRES   REMARKS
KNOXVILLE      PTCLDY    62  39  42 CALM      30.12S
OAK RIDGE      PTCLDY    61  45  55 CALM      30.14S
$$

TNZ083-085-099-210300-
SOUTHEAST TENNESSEE

CITY           SKY/WX    TMP DP  RH WIND       PRES   REMARKS
CHATTANOOGA    MOCLDY    63  47  55 CALM      30.13R
$$

SKY/WX REPORTED AS FAIR MEANS FEW OR NO CLOUDS BELOW
12 THOUSAND FEET.




USA.gov is the U.S. government's official web portal to all federal, state and local government web resources and services.